#timestamp,LO_Frequency,Hit,StdDev 
1637978415.3,286047000.3,N
1637978435.1,286047000.2,N
1637978455.9,286047000.0,N
1637978475.7,286047000.3,N
1637978495.5,286047002.8,N
1637978515.4,286046999.9,N
1637978535.2,286047000.9,N
1637978555.0,286046998.1,N
1637978555.9,286046998.1,N
1637978575.8,286046999.0,N
1637978595.6,286046999.6,N
1637978615.5,286046998.8,N
1637978635.3,286046997.4,N
1637978655.1,286046998.0,N
1637978675.9,286046997.7,N
1637978695.7,286046997.2,N
1637978715.5,286046999.1,N
1637978735.4,286046996.5,N
1637978755.2,286046999.5,N
1637978775.0,286046996.9,N
1637978776.0,286046996.9,N
1637978795.8,286046999.0,N
1637978815.6,286046999.1,N
1637978835.5,286046997.0,N
1637978855.3,286046996.7,N
1637978875.1,286046997.6,N
1637978895.9,286046994.9,Y
1637978915.8,286046999.6,P
1637978935.6,286046997.8,P
1637978955.4,286046997.1,P
1637978975.3,286046997.4,N
1637978995.1,286046996.9,Y
1637979015.8,286047000.8,P
1637979035.7,286046998.6,N
1637979055.5,286047001.1,N
1637979075.4,286046999.1,N
1637979095.2,286046997.3,N
1637979115.0,286046997.1,N
1637979115.9,286046997.1,N
1637979135.8,286046996.7,N
1637979155.6,286046996.8,N
1637979175.5,286046996.8,N
1637979195.3,286046996.9,N
1637979215.1,286046996.7,N
1637979235.9,286046995.4,Y
1637979255.7,286046998.2,P
1637979275.6,286047000.8,P
1637979295.4,286047001.1,N
1637979315.2,286047000.6,N
1637979335.1,286046998.4,N
1637979336.0,286046998.4,N
1637979355.8,286046999.1,N
1637979375.6,286046999.0,N
1637979395.5,286046999.2,N
1637979415.3,286046996.6,Y
1637979435.2,286046998.3,P
1637979455.9,286046998.2,P
1637979475.7,286046997.0,P
1637979495.6,286046997.2,Y
1637979515.4,286047000.6,P
1637979535.3,286047001.0,N
1637979555.1,286047000.9,N
1637979575.8,286047000.6,N
1637979595.7,286047000.2,N
1637979615.5,286047002.7,N
1637979635.4,286047000.1,N
1637979655.2,286046999.7,N
1637979675.0,286047002.8,N
1637979675.9,286047002.8,N
1637979695.8,286047000.5,N
1637979715.6,286047002.6,N
1637979735.5,286047000.6,N
1637979755.3,286046999.8,N
1637979775.1,286047002.8,N
1637979795.9,286047001.7,N
1637979815.7,286047001.8,N
1637979835.6,286047004.4,Y
1637979855.4,286047002.4,P
1637979875.2,286047002.4,P
1637979895.1,286046999.9,N
1637979896.0,286046999.9,N
1637979915.8,286047002.8,N
1637979935.7,286047002.6,N
1637979955.5,286047002.4,N
1637979975.3,286047002.6,N
1637979995.2,286047001.9,N
1637980015.0,286047002.1,N
1637980015.9,286047002.1,N
1637980035.8,286047000.1,N
1637980055.6,286047000.7,N
1637980075.4,286047000.8,N
1637980095.3,286047000.5,N
1637980115.1,286046998.2,N
1637980135.9,286047001.2,N
1637980155.7,286046998.6,N
1637980175.5,286046998.2,N
1637980195.4,286046999.5,N
1637980215.2,286047001.2,N
1637980235.0,286047000.8,N
1637980235.9,286047000.8,N
1637980255.8,286047000.5,N
1637980275.6,286047001.0,N
1637980295.5,286047002.8,N
1637980315.3,286047000.4,N
1637980335.1,286047001.0,N
1637980355.9,286047000.5,N
1637980375.7,286046998.2,N
1637980395.5,286046998.6,N
1637980415.4,286046999.4,N
1637980435.2,286046999.4,N
1637980455.1,286046999.3,N
1637980456.0,286046999.3,N
1637980475.8,286046998.8,N
1637980495.6,286046999.2,N
1637980515.5,286046999.5,N
1637980535.3,286046998.4,N
1637980555.1,286046999.6,N
1637980575.9,286046998.8,N
1637980595.7,286046998.7,N
1637980615.6,286046997.3,N
1637980635.4,286046999.0,N
1637980655.2,286046999.4,N
1637980675.1,286046999.6,N
1637980676.0,286046999.6,N
1637980695.8,286046999.1,N
1637980715.7,286046996.7,Y
1637980735.5,286046999.1,P
1637980755.4,286046996.8,P
1637980775.2,286046997.0,N
1637980795.0,286046997.8,N
1637980795.9,286046997.8,N
1637980815.8,286046996.5,Y
1637980835.6,286047000.9,P
1637980855.4,286047000.9,N
1637980875.3,286047000.4,N
1637980895.1,286046998.3,N
1637980915.9,286047000.8,N
1637980935.7,286046998.5,N
1637980955.5,286047000.8,N
1637980975.4,286047000.0,N
1637980995.2,286047001.1,N
1637981015.0,286046998.6,N
1637981015.9,286046998.6,N
1637981035.8,286046997.0,N
1637981055.6,286046997.8,N
1637981075.5,286046997.4,N
1637981095.3,286046999.2,N
1637981115.1,286046999.6,N
1637981135.9,286046999.4,N
1637981155.7,286046998.2,N
1637981175.6,286047001.2,N
1637981195.4,286046998.1,N
1637981215.2,286046998.1,N
1637981235.1,286047000.9,N
1637981236.0,286047000.9,N
1637981255.8,286047000.5,N
1637981275.6,286047000.3,N
1637981295.5,286047000.0,N
1637981315.3,286047000.1,N
1637981335.2,286047001.9,N
1637981355.9,286047001.4,N
1637981375.7,286047001.3,N
1637981395.6,286047001.7,N
1637981415.4,286047002.1,N
1637981435.2,286047001.7,N
1637981455.1,286047001.3,N
1637981456.0,286047001.3,N
1637981475.8,286047001.8,N
1637981495.7,286047001.4,N
1637981515.5,286047002.4,N
1637981535.3,286047002.8,N
1637981555.2,286047001.4,N
1637981575.0,286047001.8,N
1637981575.9,286047001.8,N
1637981595.7,286047003.8,N
1637981615.6,286047003.5,N
1637981635.4,286047001.3,N
1637981655.3,286047003.2,N
1637981675.1,286047003.5,N
1637981676.0,286047003.5,N
1637981695.8,286047002.9,N
1637981715.7,286047003.4,N
1637981735.5,286047003.9,Y
1637981755.4,286047002.3,P
1637981775.2,286047002.7,P
1637981795.0,286047000.8,N
1637981795.9,286047000.8,N
1637981815.8,286047000.7,N
1637981835.6,286047001.0,N
1637981855.5,286047001.2,N
1637981875.3,286046998.6,N
1637981895.1,286046998.1,N
1637981915.9,286047000.8,N
1637981935.7,286046998.1,N
1637981955.5,286047000.7,N
1637981975.4,286046998.4,N
1637981995.2,286047000.2,N
